Content
SEND FEEDBACK

Daily
Averages
Monthly
Summary
United States of America

RODNEY, MICHIGAN


Home > North America > United States > Michigan
Elevation: 929 feet     Latitude: 43 42N     Longitude: 085 28W

WEATHER
 
SELECT A DAY
Number of Records: 409,426;   Date Range: 3/2/98 - 10/24/14
 
SHARE

PRINT THIS DATA

[ ← Previous Day ]
WEATHER ALMANAC - FEBRUARY 13, 2013
[ Next Day → ]
[ °C ]   °F
Weather ElementAverageHighLow
Temperature28.7 °F34.9 °F (3:34 pm)16.2 °F (7:34 am)
Dewpoint24.6 °F29.1 °F (11:54 pm)14.2 °F (7:34 am)
Humidity85.1 %96 % (5:54 am)72 % (3:34 pm)
Barometer29.73 in29.85 in (12:34 am)29.68 in (3:14 pm)
Wind Speed3.7 mph11.5 mph (1:54 pm)
Wind Gust18.4 mph (1:14 pm)
Weather ElementAverage
Visibility6.4 mi
Wind DirectionESE (125.5 °)

Weather ElementTotal
Precipitation---
Heating Degree Days39.5 (Base 65)
Averaged from 71 records on February 13, 2013
WEATHER CONDITIONS BREAKOUT
WIND DIRECTION BREAKOUT
WEATHER BY HOUR - FEBRUARY 13, 2013
[ °C ]   °F
Local TimeTemperatureDewpointHumidityBarometerVisibilityWind DirectionWind SpeedGust SpeedPrecipitationEventsConditions
12:34 AM22.6 °F20.1 °F90 %29.85 in10.0 miCalmOvercast
12:54 AM23.7 °F20.8 °F89 %29.84 in10.0 miCalmOvercast
1:14 AM23.0 °F20.3 °F89 %29.84 in10.0 miCalmOvercast
1:34 AM25.7 °F21.9 °F86 %29.84 in10.0 miSSE (160°)3.5 mphOvercast
1:54 AM25.7 °F21.0 °F82 %29.83 in10.0 miCalmOvercast
2:14 AM23.4 °F19.8 °F86 %29.83 in10.0 miCalmOvercast
2:34 AM20.1 °F18.5 °F93 %29.84 in7.0 miCalmMostly Cloudy
2:54 AM22.1 °F20.8 °F95 %29.83 in10.0 miSSE (160°)3.5 mphOvercast
3:14 AM25.0 °F23.0 °F92 %29.83 in10.0 miSSE (160°)3.5 mphOvercast
3:34 AM24.8 °F22.3 °F90 %29.82 in10.0 miSSE (150°)3.5 mphOvercast
3:54 AM26.2 °F23.2 °F88 %29.81 in10.0 miSSE (150°)4.6 mphOvercast
4:14 AM26.4 °F23.5 °F89 %29.80 in10.0 miSSE (150°)3.5 mphOvercast
4:34 AM26.8 °F23.9 °F89 %29.80 in10.0 miSSE (160°)3.5 mphOvercast
4:54 AM26.6 °F24.1 °F90 %29.79 in10.0 miCalmOvercast
5:14 AM26.6 °F23.7 °F89 %29.78 in10.0 miCalmOvercast
5:33 AM23.4 °F21.6 °F93 %29.78 in7.0 miSSE (150°)3.5 mphOvercast
5:54 AM21.2 °F20.1 °F96 %29.78 in5.0 miCalmOvercast
6:14 AM18.9 °F17.6 °F95 %29.77 in4.0 miCalmMostly Cloudy
6:34 AM21.2 °F19.9 °F95 %29.76 in3.0 miCalmClear
6:54 AM21.9 °F20.7 °F95 %29.76 in3.0 miCalmClear
7:14 AM18.1 °F16.7 °F94 %29.75 in2.0 miCalmClear
7:34 AM16.2 °F14.2 °F92 %29.75 in2.0 miCalmClear
7:54 AM19.4 °F18.0 °F94 %29.75 in1.8 miCalmMist
8:13 AM18.0 °F16.2 °F93 %29.75 in2.5 miCalmMostly Cloudy
8:34 AM17.8 °F16.0 °F93 %29.74 in2.0 miCalmOvercast
8:54 AM19.8 °F18.1 °F93 %29.74 in3.0 miSSE (150°)4.6 mphOvercast
9:14 AM23.2 °F21.9 °F95 %29.74 in3.0 miSouth (170°)3.5 mphOvercast
9:34 AM26.1 °F24.8 °F95 %29.73 in4.0 miSouth (170°)4.6 mphOvercast
9:54 AM26.6 °F25.5 °F96 %29.73 in4.0 miSouth (170°)4.6 mphOvercast
10:14 AM27.9 °F26.6 °F95 %29.73 in4.0 miSSE (160°)3.5 mphOvercast
10:34 AM28.2 °F27.1 °F96 %29.73 in4.0 miSSE (150°)3.5 mphOvercast
10:53 AM29.3 °F27.3 °F92 %29.73 in4.0 miSSE (150°)4.6 mphOvercast
11:14 AM32.0 °F28.4 °F87 %29.72 in5.0 miSSW (200°)3.5 mphOvercast
11:34 AM32.9 °F27.9 °F82 %29.72 in5.0 miSSW (200°)6.9 mphHaze
11:54 AM33.3 °F26.6 °F77 %29.72 in7.0 miSW (230°)6.9 mphOvercast
12:14 PM33.6 °F26.8 °F76 %29.71 in7.0 miSSW (210°)8.1 mphOvercast
12:34 PM33.8 °F27.1 °F77 %29.71 in7.0 miSSW (210°)8.1 mphOvercast
12:54 PM34.2 °F27.1 °F75 %29.70 in7.0 miSSW (210°)9.2 mphOvercast
1:14 PM34.5 °F26.8 °F73 %29.70 in7.0 miSSW (200°)10.4 mph18.4 mphOvercast
1:34 PM34.5 °F26.6 °F73 %29.69 in7.0 miSW (230°)10.4 mphOvercast
1:54 PM34.2 °F26.6 °F74 %29.69 in7.0 miSSW (210°)11.5 mphOvercast
2:14 PM34.2 °F27.0 °F75 %29.69 in7.0 miSW (220°)9.2 mphOvercast
2:34 PM34.2 °F27.0 °F75 %29.69 in7.0 miSSW (210°)8.1 mphOvercast
2:54 PM34.5 °F27.0 °F74 %29.69 in7.0 miSW (220°)6.9 mphOvercast
3:14 PM34.7 °F26.8 °F73 %29.68 in7.0 miSW (230°)9.2 mphOvercast
3:34 PM34.9 °F26.6 °F72 %29.69 in7.0 miSSW (210°)5.8 mphOvercast
3:54 PM34.9 °F26.8 °F72 %29.69 in7.0 miSSW (210°)8.1 mphOvercast
4:14 PM34.7 °F26.8 °F73 %29.69 in7.0 miSSW (200°)6.9 mphOvercast
4:34 PM34.3 °F26.6 °F73 %29.69 in7.0 miSSW (200°)5.8 mphOvercast
4:54 PM34.7 °F26.8 °F73 %29.69 in7.0 miSSW (200°)5.8 mphOvercast
5:14 PM34.7 °F27.1 °F74 %29.69 in7.0 miSSW (200°)4.6 mphOvercast
5:33 PM34.2 °F27.5 °F77 %29.69 in7.0 miSSW (200°)3.5 mphOvercast
5:54 PM34.0 °F27.5 °F77 %29.69 in7.0 miSouth (190°)4.6 mphOvercast
6:14 PM33.8 °F27.3 °F77 %29.68 in7.0 miSSW (210°)4.6 mphOvercast
6:33 PM33.3 °F27.5 °F79 %29.69 in7.0 miCalmOvercast
6:54 PM32.9 °F27.9 °F82 %29.69 in7.0 miCalmOvercast
7:14 PM32.0 °F27.3 °F83 %29.70 in7.0 miCalmOvercast
7:33 PM31.8 °F28.0 °F86 %29.69 in5.0 miSSE (150°)3.5 mphOvercast
7:54 PM32.0 °F27.5 °F83 %29.69 in5.0 miSSE (160°)3.5 mphHaze
8:14 PM32.2 °F27.9 °F84 %29.69 in7.0 miSSE (160°)4.6 mphOvercast
8:34 PM32.4 °F27.7 °F83 %29.69 in7.0 miSouth (170°)4.6 mphOvercast
8:54 PM32.0 °F27.5 °F83 %29.70 in7.0 miSouth (170°)3.5 mphOvercast
9:14 PM32.2 °F27.9 °F84 %29.69 in7.0 miSSE (160°)4.6 mphOvercast
9:34 PM32.2 °F27.5 °F83 %29.69 in7.0 miSouth (180°)3.5 mphOvercast
9:54 PM32.0 °F27.5 °F83 %29.69 in7.0 miCalmOvercast
10:14 PM32.0 °F27.9 °F85 %29.69 in5.0 miSSE (150°)3.5 mphOvercast
10:34 PM32.0 °F27.5 °F83 %29.69 in5.0 miSSE (160°)3.5 mphHaze
10:54 PM32.0 °F28.9 °F88 %29.69 in5.0 miSouth (170°)3.5 mphOvercast
11:14 PM31.1 °F28.8 °F91 %29.69 in5.0 miSSE (160°)3.5 mphOvercast
11:34 PM30.6 °F28.2 °F91 %29.68 in4.0 miSSE (160°)3.5 mphOvercast
11:54 PM31.1 °F29.1 °F92 %29.68 in4.0 miCalmOvercast
Hourly data recorded from KRQB, located miles away from Rodney, Michigan







STORIES FROM OUR PARTNERS